Погода в Энсхеде

Нидерланды     52°13′05″N   6°53′30″E
темп.,
°C
ветер,
м/с
пор.,
м/с
влажн.,
%
обл.,
%
осадки,
мм/ч
давл.,
гПа
погр.,
м
16 апреля, пт
пт1623:00+3ссв49715 0.0 1030258
02:00+2ссв3677100 0.0 1030135
05:00+1св348050 0.0 102980
08:00+2ссв257026 0.0 1029132
11:00+8ссв455358 0.0 1029896
14:00+11ссв464571 0.0 10271874
17:00+12ссв664578 0.0 10261846
20:00+8ссв5105789 0.0 1027373
17 апреля, сб
сб1723:00+5ссв51065100 0.0 1028336
02:00+3ссв36775 0.0 1028137
05:00+2с35845 0.0 1027109
08:00+3с36845 0.0 1027194
11:00+9ссв46515 0.0 1026936
14:00+12ссв454857 0.0 10251588
17:00+12ссв4556100 0.0 10231462
20:00+9св576988 0.0 1024486
18 апреля, вс
вс1823:00+7ссв3774100 0.0 1024277
02:00+7ссв2481100 0.0 1024145
05:00+7ссв2480100 0.0 1023147
08:00+7ссв3585100 0.0 1023264
11:00+8св3585100 0.1 1023373
14:00+8ссв4686100 0.1 1023596
17:00+10ссв4576100 0.1 1022838
20:00+9ссв348572 0.1 1022105
19 апреля, пн
пн1923:00+8св238622 0.1 102268
02:00+8с2389100 0.1 102281
05:00+7ссв3594100 0.0 1021168
08:00+8св3592100 0.0 1021194
11:00+10св3477100 0.0 1020532
14:00+13всв3365100 0.1 10191148
17:00+12всв4472100 0.3 1018734
20:00+11всв238091 0.4 101754
20 апреля, вт
вт2023:00+8всв33919 0.1 101738
02:00+8всв228958 0.1 101638
05:00+8всв118988 0.0 101618
08:00+9св118588 0.0 101552
11:00+11юв117698 0.1 1015326
14:00+13вюв226455 0.1 1013578
17:00+15вюв115169 0.1 10121366
20:00+12ссз226763 0.7 101119